GPS BIIR-11 (PRN 19)

Last updated on Wed Jun 24 2026 00:03:27 GMT+0000 (Coordinated Universal Time)

1 28190U 04009A 26173.39426713 -.00000077 00000+0 00000+0 0 9990 2 28190 54.8252 275.4767 0116342 173.3226 199.2352 2.00554594163057
UTC large
Height (km)
Speed (km/s)
/
Latitude / Longitude
Inclination (degrees)
Orbital Period (minutes)
Azimuth
Elevation
Range (km)
Doppler Factor

Next 0 passes for location: London (51.5072 / 0.1276)

No passes found over London.
GPS BIIR-11 (PRN 19)